Vorticity
nan nan nan nan nan nan nan nan nan nan nan nan nan nan nan nan nan nan nan nan nan nan nan nan nan nan nan nan nan nan nan nan nan nan nan nan nan nan nan nan nan nan nan nan
nan 6 10 13 9 10 11 8 4 15 12 6 16 6 8 16 10 8 7 8 6 7 9 8 9 7 7 5 5 7 7 8 5 5 7 8 10 9 9 10 10 9 8 nan
nan 4 11 9 8 17 9 9 12 12 3 7 7 10 10 11 13 13 8 7 10 9 9 7 9 7 8 8 7 7 8 6 6 5 3 7 7 9 9 9 10 11 10 nan
nan 9 5 11 16 7 8 13 11 6 5 12 3 8 12 14 8 10 15 10 8 7 5 8 8 9 9 8 6 9 10 8 7 6 4 6 5 5 9 8 9 9 10 nan
nan 6 9 11 12 9 8 12 11 5 4 8 6 12 10 10 15 14 13 11 11 11 7 7 6 8 10 12 11 12 10 8 8 6 5 3 5 6 9 11 10 8 9 nan
nan 9 12 7 8 6 13 10 8 11 8 7 14 6 7 11 7 9 15 12 11 15 14 8 7 7 9 12 13 12 10 8 8 8 8 6 5 5 5 7 8 9 9 nan
nan 13 12 9 6 8 9 9 8 5 13 8 9 10 9 10 16 9 9 11 18 21 16 13 10 7 7 12 12 9 10 8 8 8 7 7 7 7 6 5 7 8 7 nan
nan 5 11 15 14 9 6 12 8 9 8 11 8 5 11 14 16 18 12 9 12 19 22 20 12 11 12 10 10 9 8 8 9 8 7 7 6 5 8 7 7 8 9 nan
nan 6 10 7 13 12 7 8 10 6 8 12 8 8 10 10 8 12 10 8 8 18 23 21 18 15 13 12 13 8 6 8 9 7 7 8 7 6 7 8 6 8 8 nan
nan 11 7 8 10 9 15 8 6 10 13 7 10 12 9 6 6 6 6 12 9 11 16 17 17 14 10 9 10 14 16 12 8 8 7 9 9 6 6 8 9 7 7 nan
nan 9 7 10 8 7 5 11 15 15 9 10 9 10 12 6 8 9 5 9 12 11 10 9 12 11 7 5 9 9 11 11 11 10 8 7 9 9 7 7 8 9 8 nan
nan 9 13 8 5 10 13 10 10 8 7 9 12 8 11 10 9 8 11 6 7 8 10 11 11 9 7 10 9 7 8 9 9 9 11 9 8 8 8 9 7 9 8 nan
nan 4 8 8 11 12 9 11 11 7 13 10 6 8 7 9 9 13 13 7 7 8 8 8 6 2 4 8 8 23 24 16 11 11 8 9 9 11 9 7 9 9 10 nan
nan 14 12 9 5 3 2 11 10 8 8 12 5 6 5 9 8 13 13 11 10 6 6 4 5 9 13 13 13 10 8 15 10 10 17 15 13 8 7 10 10 8 9 nan
nan 9 10 8 9 9 8 5 6 12 12 10 14 10 2 9 20 18 9 8 11 11 8 9 8 8 9 7 9 10 10 8 13 14 12 7 9 9 20 17 9 8 11 nan
nan 13 9 9 14 10 9 8 14 13 6 10 13 9 10 16 16 11 20 16 9 11 10 8 10 13 12 8 6 7 7 7 10 11 12 20 18 11 11 16 23 21 15 nan
nan 12 9 8 8 8 12 15 13 13 14 15 10 7 7 12 10 10 12 12 11 9 8 10 11 12 11 12 10 11 8 7 8 9 15 20 13 17 6 -0 19 14 12 nan
nan 7 10 10 8 12 9 11 16 9 8 11 13 13 12 8 5 6 7 10 9 7 5 11 11 11 12 9 5 11 15 12 8 9 9 6 6 5 7 0 3 10 10 nan
nan 8 11 14 7 6 14 16 11 3 7 10 9 9 8 4 5 5 11 12 13 9 5 8 9 9 10 9 12 9 5 9 11 9 9 8 5 2 3 8 4 12 4 nan
nan 11 12 10 12 10 5 9 12 5 7 13 11 12 7 5 7 6 9 12 12 12 13 11 8 7 8 9 9 10 8 5 10 8 10 11 12 7 10 13 9 2 -3 nan
nan 15 11 10 7 8 16 13 7 7 14 13 10 11 12 11 11 12 9 9 11 14 15 15 14 10 9 8 9 9 11 9 13 11 10 12 12 11 10 7 10 8 5 nan
nan 9 9 9 8 16 12 11 15 8 17 12 10 9 10 11 11 11 9 10 10 8 8 13 13 12 15 14 8 9 10 14 10 10 9 12 12 13 12 13 10 13 15 nan
nan 13 12 12 4 8 14 14 14 16 10 9 11 11 11 10 9 10 10 10 8 6 6 8 8 9 10 14 13 11 10 9 11 15 15 12 10 12 14 15 12 14 15 nan
nan 13 9 7 10 13 11 12 14 14 13 14 11 12 10 11 8 9 11 10 10 9 9 10 8 5 6 9 12 12 10 14 13 10 13 14 12 9 10 12 14 13 12 nan
nan 7 11 6 9 9 10 16 12 9 9 11 13 13 10 8 11 10 10 9 8 9 7 9 8 8 8 8 10 11 10 10 11 12 12 13 16 14 11 10 9 8 8 nan
nan nan nan nan nan nan nan nan nan nan nan nan nan nan nan nan nan nan nan nan nan nan nan nan nan nan nan nan nan nan nan nan nan nan nan nan nan nan nan nan nan nan nan nan
CAPE
0 0 0 0 0 0 0 0 6 106 341 529 486 384 313 58 4 0 0 0 0 0 0 0 0 0 0 0 0 66 186 144 309 363 432 221 278 412 578 244 664 803 606 582
0 0 0 0 0 0 0 0 0 121 325 526 544 455 515 315 32 4 0 0 0 0 0 0 0 0 0 0 0 0 181 315 509 424 512 76 188 295 547 252 467 1062 477 425
0 0 0 0 0 0 0 0 0 37 406 404 406 352 308 177 128 114 26 2 0 0 0 0 0 0 0 0 0 0 84 434 614 572 198 256 152 53 53 0 0 432 511 498
0 0 0 0 0 0 0 0 0 354 317 113 213 298 113 65 106 261 236 47 4 0 0 0 0 0 0 0 0 0 109 396 654 373 409 448 75 387 136 32 0 69 294 369
0 0 0 0 0 0 0 0 0 80 0 100 316 176 0 1 186 246 225 329 196 22 5 0 0 0 0 0 0 0 341 454 654 421 434 399 196 237 99 3 0 0 0 23
0 0 0 0 0 0 0 0 0 0 0 0 20 214 0 112 413 344 300 192 117 204 117 67 32 1 0 0 31 116 398 525 574 397 302 285 266 246 244 13 11 0 0 0
0 0 0 0 0 0 0 0 0 0 0 0 0 0 1 0 29 97 52 0 0 0 310 151 111 42 0 54 206 239 514 529 465 274 195 245 297 259 324 138 19 0 0 0
0 0 0 0 0 0 0 0 0 0 0 0 0 0 0 0 10 0 30 990 863 193 165 283 165 106 49 150 251 384 490 473 413 317 175 133 269 371 360 186 46 0 0 0
0 0 0 0 0 0 0 0 0 0 0 0 0 0 3 126 1001 1174 1156 814 828 767 395 388 216 95 110 290 286 566 460 423 444 410 308 261 348 505 432 224 71 0 0 0
0 0 0 0 0 0 0 0 0 0 0 4 0 1 10 483 1066 1085 1134 929 921 756 417 253 237 219 509 470 441 587 544 422 398 519 486 516 628 641 603 411 154 37 36 37
0 0 0 0 0 0 0 0 0 0 0 0 0 25 0 78 792 1169 1066 957 902 719 544 490 606 682 670 452 577 573 603 479 405 453 474 580 784 988 1074 776 553 262 249 323
0 0 0 0 0 0 0 0 0 0 0 0 0 0 0 249 667 1077 957 933 794 697 601 598 716 687 708 337 94 503 699 647 579 555 499 456 471 691 799 1087 1270 928 543 461
0 0 0 0 0 0 0 0 0 0 0 0 0 17 0 36 316 561 815 885 759 711 718 650 518 415 347 38 68 70 852 641 597 866 916 831 741 920 1120 1118 1053 1211 1262 1101
0 0 0 0 0 0 0 0 0 0 0 0 0 0 0 0 42 10 567 808 800 675 534 340 247 2 0 0 26 156 24 108 976 1082 899 906 1127 1545 1629 1560 1541 1545 1632 1545
0 0 0 0 0 0 0 0 0 0 0 0 0 0 0 344 131 0 299 296 621 526 266 13 100 67 0 13 25 28 32 0 10 484 1268 1346 1234 1169 1710 2059 2035 1934 1610 1709
0 0 0 0 0 0 0 0 0 0 0 0 0 383 65 210 683 868 688 634 272 547 592 280 296 317 215 44 41 176 242 211 216 189 113 974 1381 1408 243 36 712 2012 1913 1581
0 0 0 0 0 0 0 0 0 0 0 0 4 165 14 218 872 734 807 1249 1117 1172 1162 1052 779 45 323 547 602 407 258 145 215 320 393 102 201 0 0 0 2 17 27 792
0 0 0 0 0 0 0 0 0 0 0 0 0 3 0 16 27 101 324 358 444 494 431 480 385 706 831 570 407 468 385 276 309 307 312 57 1 0 1 1 0 7 0 0
0 0 0 0 0 0 0 0 0 0 0 0 0 7 0 0 0 0 0 69 0 15 12 617 502 430 373 580 70 7 64 280 384 299 361 466 25 1 0 0 0 0 0 1
0 0 0 0 0 0 0 0 0 0 0 0 0 0 0 0 0 0 0 0 0 0 0 352 455 152 55 262 85 1 25 0 0 310 99 46 17 0 0 0 0 0 0 0
0 0 0 0 0 0 0 0 0 0 0 0 0 0 0 0 0 0 0 0 0 0 0 0 86 34 0 0 0 0 0 0 0 0 199 151 6 0 0 0 0 0 3 0
0 0 0 0 0 0 0 0 0 0 0 0 0 0 0 0 0 0 0 0 0 0 0 0 0 0 0 0 0 0 0 0 0 0 0 153 427 0 0 0 5 8 4 0
0 0 0 0 0 0 0 0 0 0 0 0 0 0 0 0 0 0 0 0 0 0 0 0 0 0 0 0 0 0 0 0 0 0 0 16 119 130 319 121 25 319 603 699
0 0 0 0 0 0 0 0 0 0 0 0 0 0 0 0 0 0 0 0 0 0 0 0 0 0 0 0 0 0 0 0 0 0 0 0 0 0 0 0 327 568 570 566
0 0 0 0 0 0 0 0 0 0 0 0 0 0 0 0 0 0 0 0 0 0 0 0 0 0 0 0 0 0 0 0 0 0 0 0 0 0 0 0 0 30 723 868
0 0 0 0 0 0 0 0 0 0 0 0 0 0 0 0 0 0 0 0 0 0 0 0 0 0 0 0 0 0 0 0 0 0 0 0 0 0 2 7 16 22 0 82